Location: Balaclava NSW 2575, Australia
(34.4510°S, 150.4953°E)
Time: 06:17:58
(UTC+10:00)

Envisat - Pass Details

Date: 23 May 2021
Orbit: 764 x 766 km, 98.1° (Epoch: 15 June)

Event Time Altitude Azimuth Distance (km) Brightness Sun altitude
Rises 05:07:08 0° 358° (N) 3,215 6.3 -21.0°
Reaches altitude 10° 05:09:30 10° 352° (N) 2,298 5.5 -20.5°
Maximum altitude 05:14:21 45° 279° (W) 1,039 3.2 -19.5°
Enters shadow 05:16:09 33° 231° (SW) 1,291 3.7 -19.1°
